Notices

What's New in latest Release from April 7th, 2021:

- Updated Glossary, including Speed of Maximum Gust, and Total Hourly Precipitation

- Updated national and regional climate services offices contacts and prices information

- Addition of station inventory lists for 1981-2010, 1971-2000, and 1961-1990 Normals.

If you haven't already, please take our survey and provide feedback about our website: https://eccc.sondage-survey.ca/f/LanguageSelection.aspx?s=442ca660-fcf1-47c0-95a9-59707d6fd709

Hourly Data Report for September 11, 2015

IQALUIT CLIMATE
NUNAVUT

63°44'50.000" N
68°32'40.000" W
33.50 m
2402592
71321
XFB

Download Data

Hourly Data (September 2015)
Hourly Data Report for September 11, 2015
TIME
LST
Temp Definition
°C
Dew Point Definition
°C
Rel Hum Definition
%
Precip. Amount Definition
mm

Wind Dir Definition
10's deg

Wind Spd Definition
km/h
Visibility Definition
km
Stn Press Definition
kPa
Hmdx Definition


Wind Chill Definition


Weather Definition


00:00 3.8 1.1 82 0.0 36 23   100.94     LegendNANA
01:00 2.2 0.5 88 0.0 33 15   100.99     LegendNANA
02:00 1.8 -0.2 87 0.0 31 11   101.04     LegendNANA
03:00 0.7 -0.6 91 0.0 32 2   101.10     LegendNANA
04:00 0.4 -0.5 94 0.0 33 14   101.15     LegendNANA
05:00 0.2 -0.5 95 0.0 32 15   101.20     LegendNANA
06:00 0.6 -0.3 94 0.0 33 6   101.25     LegendNANA
07:00 2.0 0.6 90 0.0 33 12   101.29     LegendNANA
08:00 LegendMM 0.8 78 0.0 33 16   101.30     LegendNANA
09:00 4.5 0.6 76 0.0 32 16   101.32     LegendNANA
10:00 5.3 0.5 71 0.0 32 15   101.30     LegendNANA
11:00 5.9 0.9 70 0.0 32 12   101.28     LegendNANA
12:00 7.2 1.3 66 0.0 31 14   101.27     LegendNANA
13:00 7.8 1.1 62 0.0 30 13   101.25     LegendNANA
14:00 8.0 0.5 59 0.0 33 12   101.24     LegendNANA
15:00 8.4 0.3 56 0.0 31 11   101.23     LegendNANA
16:00 8.0 0.4 59 0.0 36 12   101.21     LegendNANA
17:00 7.6 0.1 59 0.0 35 10   101.21     LegendNANA
18:00 LegendMM 0.5 79 0.0 17 5   101.20     LegendNANA
19:00 LegendMM 0.3 82 0.0 15 4   101.23     LegendNANA
20:00 LegendMM 0.1 85 0.0 18 1   101.23     LegendNANA
21:00 1.6 -0.2 88 0.0 16 3   101.23     LegendNANA
22:00 0.2 -1.8 87 0.0 35 4   101.21     LegendNANA
23:00 0.9 -0.6 90 0.0   0   101.19     LegendNANA

Notes on Data Quality.

Legend

  • E = Estimated
  • M = Missing
  • NA = Not Available*
  • [empty] = Indicates an unobserved value
Date modified: